Вернуться в каталог

STARLINK-32037

АктивенСвязьVLEO
NORAD 60283·PAYLOAD·🇺🇸 United States

Запущен Jul 28, 2024 с Cape Canaveral Space Force Station

Loading…

Ближайшие Пролёты (ближайшие 24 часа)

TLE

СвежийSource: CelesTrak SupGP

Эпоха: Sep 14, 2026, 21:45 UTC

1 60283C 24132F   26257.90673611  .00048363  00000+0  15553-2 0  2577
2 60283  53.1579 252.5235 0001305  77.8311 319.2027 15.31675444    16

Отслеживайте STARLINK-32037 в реальном времени с AllMySat

Download on the App Store